CCA4580 OMDB-ZBAA

Flight info

Callsign CCA4580
Flight time N/A
Altitude 35000
Route DAVMO M318 KHM A453 ZDN G452 KALAT G325 PURPA/K0889S1070 B215 MAGIV W187 SADAN/K0885S1130 W187 IBANO B215 NUKTI W66 DKO W69 GUVBA GUVBA4E
Aircraft A346/H-SDE2E3FGHIJ3J4J5M1RWXY/LB1D1

Departure

Time 2026-04-21 05:40
Airport Dubai International Airport (OMDB)

Arrival

Time N/A
Airport Beijing Capital International Airport (ZBAA)
Time Latitude Longitude Altitude Speed Heading
2026-04-21 04:32 25.24873 55.36290 80 ft 0 kts 211°
2026-04-21 05:25 25.24883 55.36296 80 ft 2 kts 206°
2026-04-21 05:25 25.24897 55.36303 80 ft 2 kts 195°
2026-04-21 05:25 25.24912 55.36306 80 ft 2 kts 187°
2026-04-21 05:25 25.24927 55.36308 80 ft 2 kts 180°
2026-04-21 05:26 25.24942 55.36307 80 ft 2 kts 171°
2026-04-21 05:26 25.24957 55.36303 80 ft 2 kts 163°
2026-04-21 05:26 25.24971 55.36298 80 ft 2 kts 155°
2026-04-21 05:26 25.24985 55.36290 80 ft 2 kts 147°
2026-04-21 05:27 25.24997 55.36280 80 ft 2 kts 139°
2026-04-21 05:27 25.25008 55.36268 80 ft 2 kts 130°
2026-04-21 05:27 25.25017 55.36254 80 ft 2 kts 122°
2026-04-21 05:27 25.25019 55.36250 80 ft 0 kts 122°
2026-04-21 05:31 25.25016 55.36255 80 ft 2 kts 122°
2026-04-21 05:31 25.25003 55.36280 80 ft 5 kts 117°
2026-04-21 05:31 25.24988 55.36327 80 ft 7 kts 96°
2026-04-21 05:31 25.24981 55.36396 80 ft 9 kts 93°
2026-04-21 05:32 25.24977 55.36480 80 ft 11 kts 99°
2026-04-21 05:32 25.24942 55.36572 80 ft 13 kts 118°
2026-04-21 05:32 25.24893 55.36668 80 ft 14 kts 112°
2026-04-21 05:32 25.24862 55.36778 80 ft 15 kts 101°
2026-04-21 05:33 25.24827 55.36893 80 ft 16 kts 118°
2026-04-21 05:33 25.24768 55.37003 80 ft 16 kts 121°
2026-04-21 05:33 25.24705 55.37116 80 ft 17 kts 121°
2026-04-21 05:33 25.24640 55.37233 80 ft 18 kts 121°
2026-04-21 05:34 25.24573 55.37354 80 ft 18 kts 121°
2026-04-21 05:34 25.24505 55.37477 80 ft 18 kts 121°
2026-04-21 05:34 25.24435 55.37602 80 ft 19 kts 121°
2026-04-21 05:34 25.24365 55.37730 80 ft 19 kts 121°
2026-04-21 05:35 25.24292 55.37862 80 ft 20 kts 121°
2026-04-21 05:35 25.24218 55.37996 80 ft 20 kts 121°
2026-04-21 05:35 25.24142 55.38133 80 ft 20 kts 122°
2026-04-21 05:35 25.24064 55.38269 80 ft 21 kts 121°
2026-04-21 05:36 25.23985 55.38411 80 ft 21 kts 121°
2026-04-21 05:36 25.23905 55.38555 80 ft 22 kts 121°
2026-04-21 05:36 25.23825 55.38704 80 ft 22 kts 121°
2026-04-21 05:36 25.23743 55.38852 80 ft 22 kts 122°
2026-04-21 05:37 25.23657 55.39005 80 ft 23 kts 121°
2026-04-21 05:37 25.23571 55.39160 80 ft 23 kts 121°
2026-04-21 05:37 25.23486 55.39313 80 ft 19 kts 121°
2026-04-21 05:37 25.23425 55.39423 80 ft 13 kts 121°
2026-04-21 05:38 25.23437 55.39513 80 ft 13 kts 39°
2026-04-21 05:38 25.23516 55.39568 80 ft 8 kts 17°
2026-04-21 05:38 25.23544 55.39557 80 ft 0 kts 300°
2026-04-21 05:39 25.23552 55.39543 80 ft 15 kts 301°
2026-04-21 05:39 25.23754 55.39192 80 ft 92 kts 302°
2026-04-21 05:39 25.24214 55.38364 80 ft 157 kts 302°
2026-04-21 05:39 25.24863 55.37175 260 ft 191 kts 302°
2026-04-21 05:40 25.25568 55.35922 804 ft 199 kts 304°
2026-04-21 05:40 25.26372 55.34608 1465 ft 208 kts 306°
2026-04-21 05:40 25.27192 55.33282 2261 ft 211 kts 306°
2026-04-21 05:40 25.28021 55.31945 3046 ft 213 kts 306°
2026-04-21 05:41 25.28888 55.30570 3704 ft 223 kts 311°
2026-04-21 05:41 25.30178 55.29586 4206 ft 233 kts 348°
2026-04-21 05:41 25.31819 55.29467 4990 ft 237 kts
2026-04-21 05:41 25.33440 55.29538 5944 ft 237 kts
2026-04-21 05:42 25.35096 55.29600 6797 ft 240 kts
2026-04-21 05:42 25.36750 55.29652 7592 ft 245 kts
2026-04-21 05:42 25.38459 55.29699 8253 ft 245 kts
2026-04-21 05:42 25.40133 55.29959 8743 ft 248 kts 18°
2026-04-21 05:43 25.41787 55.30604 9087 ft 260 kts 25°
2026-04-21 05:43 25.43518 55.31420 9376 ft 275 kts 26°
2026-04-21 05:43 25.45311 55.32278 9735 ft 287 kts 25°
2026-04-21 05:43 25.47152 55.33148 10275 ft 291 kts 25°
2026-04-21 05:44 25.49057 55.34040 10602 ft 305 kts 25°
2026-04-21 05:44 25.51051 55.34971 10881 ft 320 kts 25°
2026-04-21 05:44 25.53170 55.35959 11162 ft 336 kts 25°
2026-04-21 05:44 25.55354 55.36982 11434 ft 351 kts 26°
2026-04-21 05:45 25.57604 55.38211 11705 ft 365 kts 31°
2026-04-21 05:45 25.59798 55.39685 11994 ft 378 kts 36°
2026-04-21 05:45 25.61971 55.41352 12502 ft 384 kts 37°
2026-04-21 05:45 25.64177 55.43081 13141 ft 388 kts 37°
2026-04-21 05:46 25.66333 55.44869 13739 ft 391 kts 41°
2026-04-21 05:46 25.68402 55.46819 14307 ft 394 kts 44°
2026-04-21 05:46 25.70409 55.48896 14867 ft 398 kts 45°
2026-04-21 05:46 25.72418 55.51011 15412 ft 402 kts 46°
2026-04-21 05:47 25.74477 55.53182 15954 ft 406 kts 46°
2026-04-21 05:47 25.76534 55.55349 16481 ft 411 kts 46°
2026-04-21 05:47 25.78613 55.57534 16996 ft 415 kts 46°
2026-04-21 05:47 25.80702 55.59731 17498 ft 419 kts 46°
2026-04-21 05:48 25.82829 55.61964 17993 ft 423 kts 45°
2026-04-21 05:48 25.85046 55.64131 18475 ft 429 kts 41°
2026-04-21 05:48 25.87412 55.66152 18946 ft 434 kts 38°
2026-04-21 05:48 25.89958 55.68048 19420 ft 439 kts 35°
2026-04-21 05:49 25.92538 55.69868 19878 ft 443 kts 34°
2026-04-21 05:49 25.95140 55.71687 20325 ft 447 kts 34°
2026-04-21 05:49 25.97779 55.73536 20774 ft 451 kts 34°
2026-04-21 05:49 26.00432 55.75405 21205 ft 455 kts 34°
2026-04-21 05:50 26.03110 55.77293 21629 ft 459 kts 33°
2026-04-21 05:50 26.06001 55.78835 22021 ft 465 kts 19°
2026-04-21 05:50 26.09167 55.79604 22427 ft 468 kts
2026-04-21 05:50 26.12413 55.79595 22838 ft 471 kts 355°
2026-04-21 05:51 26.15677 55.79316 23246 ft 474 kts 355°
2026-04-21 05:51 26.18969 55.79257 23637 ft 477 kts
2026-04-21 05:51 26.22280 55.79539 24029 ft 481 kts
2026-04-21 05:51 26.25585 55.80120 24419 ft 484 kts
2026-04-21 05:52 26.28933 55.80812 24807 ft 487 kts 10°
2026-04-21 05:52 26.32258 55.81524 25178 ft 490 kts 10°
2026-04-21 05:52 26.35588 55.82238 25537 ft 492 kts 10°
2026-04-21 05:52 26.38940 55.82951 25896 ft 495 kts
2026-04-21 05:53 26.42310 55.83662 26251 ft 498 kts
2026-04-21 05:53 26.45726 55.84379 26602 ft 500 kts
2026-04-21 05:53 26.49151 55.85097 26947 ft 503 kts
2026-04-21 05:53 26.52572 55.85813 27287 ft 505 kts
2026-04-21 05:54 26.56037 55.86538 27626 ft 507 kts
2026-04-21 05:54 26.59482 55.87260 27950 ft 509 kts
2026-04-21 05:54 26.62990 55.87995 28288 ft 511 kts
2026-04-21 05:54 26.66495 55.88731 28740 ft 510 kts
2026-04-21 05:55 26.69936 55.89480 29230 ft 509 kts 11°
2026-04-21 05:55 26.73303 55.90610 29691 ft 510 kts 19°
2026-04-21 05:55 26.76542 55.92263 30131 ft 510 kts 27°
2026-04-21 05:55 26.79537 55.94393 30544 ft 511 kts 35°
2026-04-21 05:56 26.82236 55.96929 30937 ft 511 kts 41°
2026-04-21 05:56 26.84838 55.99693 31336 ft 511 kts 43°
2026-04-21 05:56 26.87371 56.02454 31711 ft 510 kts 43°
2026-04-21 05:56 26.89903 56.05209 32077 ft 510 kts 42°
2026-04-21 05:57 26.92448 56.07955 32439 ft 509 kts 42°
2026-04-21 05:57 26.95021 56.10710 32801 ft 508 kts 41°
2026-04-21 05:57 26.97558 56.13416 33149 ft 507 kts 41°
2026-04-21 05:57 27.00126 56.16151 33462 ft 507 kts 41°
2026-04-21 05:58 27.02670 56.18862 33724 ft 508 kts 41°
2026-04-21 05:58 27.05230 56.21576 33963 ft 509 kts 40°
2026-04-21 05:58 27.07827 56.24292 34199 ft 510 kts 40°
2026-04-21 05:58 27.10454 56.27030 34430 ft 511 kts 40°
2026-04-21 05:59 27.13054 56.29745 34643 ft 511 kts 40°
2026-04-21 05:59 27.15606 56.32544 34844 ft 513 kts 44°
2026-04-21 06:00 27.21843 56.41017 34940 ft 518 kts 53°
2026-04-21 06:00 27.25672 56.47865 34942 ft 519 kts 58°
2026-04-21 06:01 27.29962 56.56035 34942 ft 519 kts 58°
2026-04-21 06:01 27.33621 56.62982 34942 ft 519 kts 58°
2026-04-21 06:02 27.36699 56.68811 34940 ft 519 kts 58°
2026-04-21 06:02 27.41011 56.76979 34941 ft 519 kts 58°
2026-04-21 06:03 27.44693 56.83964 34942 ft 519 kts 58°
2026-04-21 06:03 27.48381 56.90970 34942 ft 519 kts 58°
2026-04-21 06:04 27.52052 56.97957 34942 ft 519 kts 58°
2026-04-21 06:04 27.55733 57.04974 34941 ft 519 kts 58°
2026-04-21 06:05 27.59391 57.11958 34941 ft 519 kts 58°
2026-04-21 06:05 27.63062 57.18976 34941 ft 519 kts 58°
2026-04-21 06:06 27.66731 57.25999 34941 ft 519 kts 58°
2026-04-21 06:06 27.70388 57.33015 34941 ft 519 kts 58°
2026-04-21 06:07 27.74065 57.40060 34941 ft 519 kts 58°
2026-04-21 06:07 27.77709 57.47033 34941 ft 519 kts 58°
2026-04-21 06:08 27.81376 57.54058 34941 ft 519 kts 58°
2026-04-21 06:08 27.85043 57.61097 34941 ft 519 kts 58°
2026-04-21 06:09 27.88708 57.68144 34939 ft 519 kts 58°
2026-04-21 06:09 27.92357 57.75168 34941 ft 519 kts 58°
2026-04-21 06:10 27.96009 57.82213 34942 ft 519 kts 58°
2026-04-21 06:10 27.99651 57.89250 34942 ft 519 kts 58°
2026-04-21 06:11 28.03301 57.96316 34942 ft 519 kts 58°
2026-04-21 06:11 28.06939 58.03366 34941 ft 519 kts 58°
2026-04-21 06:12 28.10586 58.10448 34941 ft 519 kts 58°
2026-04-21 06:12 28.13610 58.16328 34941 ft 519 kts 58°
2026-04-21 06:13 28.17845 58.24575 34942 ft 519 kts 58°
2026-04-21 06:13 28.21456 58.31621 34942 ft 519 kts 58°
2026-04-21 06:14 28.25079 58.38698 34942 ft 519 kts 58°
2026-04-21 06:14 28.28716 58.45831 34942 ft 519 kts 59°
2026-04-21 06:15 28.32294 58.52916 34942 ft 519 kts 59°
2026-04-21 06:15 28.35881 58.60032 34942 ft 519 kts 59°
2026-04-21 06:16 28.39470 58.67160 34939 ft 519 kts 59°
2026-04-21 06:16 28.43039 58.74259 34941 ft 519 kts 59°
2026-04-21 06:17 28.46624 58.81400 34941 ft 519 kts 59°
2026-04-21 06:17 28.50215 58.88562 34941 ft 519 kts 59°
2026-04-21 06:18 28.53780 58.95682 34941 ft 519 kts 59°
2026-04-21 06:18 28.57351 59.02827 34941 ft 519 kts 59°
2026-04-21 06:19 28.60910 59.09961 34941 ft 519 kts 59°
2026-04-21 06:19 28.64471 59.17110 34941 ft 519 kts 59°
2026-04-21 06:20 28.68023 59.24253 34941 ft 519 kts 59°
2026-04-21 06:20 28.71568 59.31395 34941 ft 519 kts 59°
2026-04-21 06:21 28.75124 59.38573 34941 ft 519 kts 59°
2026-04-21 06:21 28.78658 59.45717 34941 ft 519 kts 59°
2026-04-21 06:22 28.81618 59.51709 34941 ft 519 kts 59°
2026-04-21 06:22 28.85735 59.60060 34941 ft 519 kts 59°
2026-04-21 06:23 28.89273 59.67247 34939 ft 519 kts 60°
2026-04-21 06:23 28.92810 59.74445 34941 ft 519 kts 60°
2026-04-21 06:24 28.96333 59.81623 34942 ft 519 kts 60°
2026-04-21 06:24 28.99865 59.88845 34942 ft 519 kts 60°
2026-04-21 06:25 29.03377 59.96091 34942 ft 519 kts 60°
2026-04-21 06:25 29.06852 60.03275 34941 ft 519 kts 60°
2026-04-21 06:26 29.10357 60.10521 34941 ft 519 kts 60°
2026-04-21 06:26 29.13858 60.17769 34941 ft 519 kts 60°
2026-04-21 06:27 29.17326 60.24960 34942 ft 519 kts 60°
2026-04-21 06:27 29.20805 60.32190 34942 ft 519 kts 60°
2026-04-21 06:28 29.24287 60.39444 34942 ft 519 kts 60°
2026-04-21 06:28 29.27784 60.46716 34942 ft 519 kts 60°
2026-04-21 06:29 29.31261 60.53937 34942 ft 519 kts 60°
2026-04-21 06:29 29.34744 60.61188 34942 ft 519 kts 60°
2026-04-21 06:30 29.38234 60.68448 34939 ft 519 kts 60°
2026-04-21 06:30 29.41708 60.75684 34941 ft 519 kts 60°
2026-04-21 06:31 29.44991 60.83089 34940 ft 520 kts 68°
2026-04-21 06:31 29.46907 60.91085 34941 ft 519 kts 82°
2026-04-21 06:32 29.47179 60.99372 34941 ft 517 kts 97°
2026-04-21 06:32 29.46094 61.07465 34943 ft 515 kts 103°
2026-04-21 06:33 29.44777 61.15581 34942 ft 515 kts 102°
2026-04-21 06:33 29.43518 61.23683 34941 ft 515 kts 102°
2026-04-21 06:34 29.42499 61.31791 34941 ft 516 kts 97°
2026-04-21 06:34 29.41812 61.39991 34942 ft 516 kts 97°
2026-04-21 06:35 29.41140 61.48201 34942 ft 516 kts 97°
2026-04-21 06:35 29.40459 61.56385 34942 ft 516 kts 97°
2026-04-21 06:36 29.39767 61.64588 34942 ft 516 kts 97°
2026-04-21 06:36 29.39065 61.72842 34940 ft 516 kts 98°
2026-04-21 06:37 29.38363 61.81027 34941 ft 516 kts 98°
2026-04-21 06:37 29.37657 61.89192 34941 ft 516 kts 98°
2026-04-21 06:38 29.36946 61.97367 34941 ft 516 kts 98°
2026-04-21 06:38 29.36227 62.05563 34941 ft 516 kts 98°
2026-04-21 06:39 29.35500 62.13796 34941 ft 516 kts 98°
2026-04-21 06:39 29.34771 62.22005 34942 ft 516 kts 98°
2026-04-21 06:40 29.34040 62.30172 34942 ft 516 kts 98°
2026-04-21 06:40 29.33297 62.38411 34942 ft 516 kts 98°
2026-04-21 06:41 29.32556 62.46580 34942 ft 516 kts 98°
2026-04-21 06:41 29.31806 62.54781 34942 ft 516 kts 98°
2026-04-21 06:42 29.31055 62.62935 34942 ft 516 kts 98°
2026-04-21 06:42 29.30292 62.71168 34940 ft 516 kts 98°
2026-04-21 06:43 29.29532 62.79324 34941 ft 516 kts 98°
2026-04-21 06:43 29.28763 62.87508 34941 ft 516 kts 98°
2026-04-21 06:44 29.27991 62.95679 34941 ft 516 kts 98°
2026-04-21 06:44 29.27213 63.03857 34941 ft 516 kts 98°
2026-04-21 06:45 29.26426 63.12074 34941 ft 516 kts 98°
2026-04-21 06:45 29.25636 63.20257 34942 ft 516 kts 98°
2026-04-21 06:46 29.24843 63.28435 34942 ft 516 kts 98°
2026-04-21 06:46 29.24042 63.36628 34942 ft 516 kts 98°
2026-04-21 06:47 29.23239 63.44804 34942 ft 516 kts 98°
2026-04-21 06:47 29.22430 63.52981 34942 ft 516 kts 98°
2026-04-21 06:48 29.21617 63.61151 34942 ft 516 kts 98°
2026-04-21 06:48 29.20797 63.69342 34940 ft 516 kts 99°
2026-04-21 06:49 29.19969 63.77551 34941 ft 516 kts 99°
2026-04-21 06:49 29.19144 63.85690 34941 ft 516 kts 99°
2026-04-21 06:50 29.18313 63.93847 34941 ft 516 kts 99°
2026-04-21 06:50 29.17469 64.02065 34941 ft 516 kts 99°
2026-04-21 06:51 29.16628 64.10208 34941 ft 516 kts 99°
2026-04-21 06:51 29.15781 64.18371 34942 ft 516 kts 99°
2026-04-21 06:52 29.14931 64.26517 34942 ft 516 kts 99°
2026-04-21 06:52 29.14077 64.34660 34942 ft 516 kts 99°
2026-04-21 06:53 29.13311 64.42815 34942 ft 517 kts 95°
2026-04-21 06:53 29.13005 64.51036 34942 ft 518 kts 93°
2026-04-21 06:54 29.12759 64.59314 34942 ft 518 kts 93°
2026-04-21 06:54 29.12504 64.67525 34939 ft 518 kts 94°
2026-04-21 06:55 29.12236 64.75759 34941 ft 517 kts 94°
2026-04-21 06:55 29.11960 64.84010 34941 ft 517 kts 94°
2026-04-21 06:56 29.11681 64.92225 34941 ft 517 kts 94°
2026-04-21 06:56 29.11396 65.00440 34941 ft 517 kts 94°
2026-04-21 06:57 29.11107 65.08684 34941 ft 517 kts 94°
2026-04-21 06:57 29.10814 65.16914 34942 ft 517 kts 94°
2026-04-21 06:58 29.10515 65.25128 34942 ft 517 kts 94°
2026-04-21 06:58 29.10146 65.33329 34942 ft 517 kts 95°
2026-04-21 06:59 29.09719 65.41541 34942 ft 517 kts 95°
2026-04-21 06:59 29.09295 65.49728 34942 ft 517 kts 95°
2026-04-21 07:00 29.08871 65.57969 34942 ft 517 kts 95°
2026-04-21 07:00 29.08445 65.66187 34941 ft 517 kts 95°
2026-04-21 07:01 29.08014 65.74401 34941 ft 517 kts 95°
2026-04-21 07:01 29.07357 65.86746 34941 ft 517 kts 95°
2026-04-21 07:02 29.06914 65.94949 34941 ft 517 kts 95°
2026-04-21 07:02 29.06465 66.03174 34941 ft 517 kts 95°
2026-04-21 07:03 29.06087 66.10029 34942 ft 517 kts 95°
2026-04-21 07:03 29.05555 66.19598 34942 ft 517 kts 95°
2026-04-21 07:04 29.05093 66.27801 34942 ft 517 kts 95°
2026-04-21 07:04 29.04625 66.36049 34942 ft 517 kts 95°
2026-04-21 07:05 29.04155 66.44224 34942 ft 517 kts 95°
2026-04-21 07:05 29.04341 66.52436 34941 ft 520 kts 81°
2026-04-21 07:06 29.06484 66.60336 34942 ft 520 kts 63°
2026-04-21 07:06 29.10441 66.67201 34940 ft 517 kts 46°
2026-04-21 07:07 29.15395 66.73199 34942 ft 516 kts 44°
2026-04-21 07:07 29.20356 66.79081 34941 ft 516 kts 44°
2026-04-21 07:08 29.25304 66.85030 34941 ft 516 kts 44°
2026-04-21 07:08 29.30258 66.91034 34941 ft 516 kts 44°
2026-04-21 07:09 29.35197 66.97039 34941 ft 516 kts 44°
2026-04-21 07:09 29.40090 67.02998 34941 ft 516 kts 44°
2026-04-21 07:10 29.45022 67.09013 34941 ft 516 kts 44°
2026-04-21 07:10 29.49932 67.15011 34941 ft 516 kts 44°
2026-04-21 07:11 29.54851 67.21028 34941 ft 516 kts 44°
2026-04-21 07:11 29.59784 67.27071 34942 ft 516 kts 44°
2026-04-21 07:12 29.64683 67.33079 34942 ft 516 kts 44°
2026-04-21 07:12 29.69610 67.39130 34941 ft 516 kts 44°
2026-04-21 07:13 29.74507 67.45157 34941 ft 516 kts 44°
2026-04-21 07:13 29.79408 67.51183 34941 ft 516 kts 44°
2026-04-21 07:14 29.84323 67.57227 34941 ft 516 kts 44°
2026-04-21 07:14 29.89232 67.63270 34941 ft 516 kts 44°
2026-04-21 07:15 29.94133 67.69310 34940 ft 517 kts 45°
2026-04-21 07:15 29.99036 67.75362 34941 ft 517 kts 45°
2026-04-21 07:16 30.03945 67.81429 34942 ft 517 kts 45°
2026-04-21 07:16 30.08848 67.87504 34942 ft 517 kts 45°
2026-04-21 07:17 30.12943 67.92546 34941 ft 516 kts 44°
2026-04-21 07:17 30.18707 67.99617 34941 ft 516 kts 44°
2026-04-21 07:18 30.23620 68.05655 34941 ft 516 kts 44°
2026-04-21 07:18 30.28540 68.11720 34941 ft 516 kts 44°
2026-04-21 07:19 30.33454 68.17793 34942 ft 516 kts 44°
2026-04-21 07:19 30.38361 68.23863 34942 ft 516 kts 44°
2026-04-21 07:20 30.43269 68.29942 34941 ft 516 kts 44°
2026-04-21 07:20 30.48156 68.36002 34941 ft 516 kts 44°
2026-04-21 07:21 30.53057 68.42090 34941 ft 516 kts 44°
2026-04-21 07:21 30.57964 68.48193 34941 ft 516 kts 44°
2026-04-21 07:22 30.62868 68.54303 34941 ft 516 kts 44°
2026-04-21 07:22 30.67787 68.60442 34941 ft 516 kts 44°
2026-04-21 07:23 30.72653 68.66524 34939 ft 517 kts 45°
2026-04-21 07:23 30.76743 68.71643 34941 ft 517 kts 45°
2026-04-21 07:24 30.82427 68.78769 34941 ft 517 kts 45°
2026-04-21 07:24 30.87334 68.84932 34942 ft 517 kts 45°
2026-04-21 07:25 30.92210 68.91065 34942 ft 517 kts 45°
2026-04-21 07:25 30.97077 68.97198 34942 ft 517 kts 45°
2026-04-21 07:26 31.01963 69.03367 34941 ft 517 kts 45°
2026-04-21 07:26 31.06856 69.09552 34941 ft 517 kts 45°
2026-04-21 07:27 31.11710 69.15694 34941 ft 517 kts 45°
2026-04-21 07:27 31.16576 69.21864 34941 ft 517 kts 45°
2026-04-21 07:28 31.21469 69.28075 34942 ft 517 kts 45°
2026-04-21 07:28 31.26312 69.34231 34942 ft 517 kts 45°
2026-04-21 07:29 31.31220 69.40402 34941 ft 516 kts 43°
2026-04-21 07:29 31.36516 69.46018 34941 ft 513 kts 36°
2026-04-21 07:30 31.42317 69.50865 34941 ft 510 kts 28°
2026-04-21 07:30 31.48355 69.55145 34942 ft 510 kts 27°
2026-04-21 07:31 31.54449 69.59409 34941 ft 510 kts 27°
2026-04-21 07:31 31.60547 69.63706 34941 ft 510 kts 27°
2026-04-21 07:32 31.66640 69.68018 34940 ft 510 kts 28°
2026-04-21 07:32 31.72721 69.72334 34941 ft 510 kts 28°
2026-04-21 07:33 31.78754 69.76623 34941 ft 510 kts 28°
2026-04-21 07:33 31.84824 69.80946 34941 ft 510 kts 28°
2026-04-21 07:34 31.90885 69.85268 34941 ft 510 kts 28°
2026-04-21 07:34 31.96956 69.89603 34941 ft 510 kts 28°
2026-04-21 07:35 32.03019 69.93941 34941 ft 510 kts 28°
2026-04-21 07:35 32.09070 69.98274 34941 ft 510 kts 28°
2026-04-21 07:36 32.15153 70.02637 34941 ft 510 kts 28°
2026-04-21 07:36 32.21241 70.07010 34941 ft 510 kts 28°
2026-04-21 07:37 32.27259 70.11340 34941 ft 510 kts 28°
2026-04-21 07:37 32.33347 70.15725 34941 ft 510 kts 28°
2026-04-21 07:38 32.39393 70.20058 34941 ft 510 kts 27°
2026-04-21 07:38 32.45517 70.24301 34941 ft 510 kts 27°
2026-04-21 07:39 32.51657 70.28549 34941 ft 510 kts 27°
2026-04-21 07:39 32.57747 70.32783 34941 ft 510 kts 27°
2026-04-21 07:40 32.63869 70.37073 34941 ft 510 kts 28°
2026-04-21 07:40 32.69870 70.41604 34941 ft 511 kts 29°
2026-04-21 07:41 32.75803 70.46153 34941 ft 511 kts 29°
2026-04-21 07:41 32.81789 70.50734 34941 ft 511 kts 29°
2026-04-21 07:42 32.87770 70.55308 34941 ft 511 kts 29°
2026-04-21 07:42 32.93739 70.59879 34941 ft 511 kts 29°
2026-04-21 07:43 32.99763 70.64365 34941 ft 510 kts 28°
2026-04-21 07:43 33.05808 70.68816 34940 ft 510 kts 28°
2026-04-21 07:44 33.11826 70.73265 34940 ft 510 kts 28°
2026-04-21 07:44 33.17862 70.77741 34941 ft 510 kts 28°
2026-04-21 07:45 33.23913 70.82237 34941 ft 510 kts 28°
2026-04-21 07:45 33.29948 70.86728 34941 ft 510 kts 28°
2026-04-21 07:46 33.35972 70.91216 34941 ft 510 kts 28°
2026-04-21 07:46 33.41984 70.95703 34941 ft 510 kts 28°
2026-04-21 07:47 33.47943 71.00347 34941 ft 512 kts 33°
2026-04-21 07:47 33.53533 71.05703 34942 ft 514 kts 38°
2026-04-21 07:48 33.58960 71.11332 34941 ft 514 kts 38°
2026-04-21 07:48 33.64360 71.16946 34941 ft 514 kts 38°
2026-04-21 07:49 33.69794 71.22584 34941 ft 514 kts 38°
2026-04-21 07:49 33.75196 71.28188 34941 ft 514 kts 38°
2026-04-21 07:50 33.80618 71.33821 34941 ft 514 kts 38°
2026-04-21 07:50 33.86060 71.39484 34941 ft 514 kts 38°
2026-04-21 07:51 33.91460 71.45112 34941 ft 514 kts 38°
2026-04-21 07:51 33.96791 71.50816 34941 ft 516 kts 41°
2026-04-21 07:52 34.01700 71.57133 34941 ft 517 kts 46°
2026-04-21 07:52 34.06385 71.63703 34941 ft 517 kts 47°
2026-04-21 07:53 34.11116 71.70364 34939 ft 517 kts 47°
2026-04-21 07:53 34.15796 71.76941 34941 ft 517 kts 47°
2026-04-21 07:54 34.20500 71.83553 34941 ft 517 kts 47°
2026-04-21 07:54 34.25187 71.90153 34941 ft 517 kts 47°
2026-04-21 07:55 34.29887 71.96781 34941 ft 517 kts 47°
2026-04-21 07:55 34.34580 72.03411 34941 ft 517 kts 47°
2026-04-21 07:56 34.39238 72.10004 34941 ft 517 kts 47°
2026-04-21 07:56 34.43162 72.15567 34941 ft 517 kts 47°
2026-04-21 07:57 34.48624 72.23328 34941 ft 518 kts 47°
2026-04-21 07:57 34.53296 72.29978 34941 ft 518 kts 47°
2026-04-21 07:58 34.57955 72.36623 34941 ft 518 kts 47°
2026-04-21 07:58 34.62632 72.43304 34941 ft 518 kts 47°
2026-04-21 07:59 34.67271 72.49945 34941 ft 518 kts 47°
2026-04-21 07:59 34.71933 72.56632 34941 ft 518 kts 47°
2026-04-21 08:00 34.76594 72.63327 34941 ft 518 kts 47°
2026-04-21 08:00 34.81235 72.70005 34940 ft 518 kts 48°
2026-04-21 08:01 34.85883 72.76705 34941 ft 518 kts 48°
2026-04-21 08:02 34.92874 72.86814 34942 ft 518 kts 48°
2026-04-21 08:02 34.97498 72.93536 34942 ft 518 kts 48°
2026-04-21 08:03 35.02130 73.00275 34941 ft 518 kts 48°
2026-04-21 08:03 35.06753 73.07011 34941 ft 518 kts 48°
2026-04-21 08:04 35.11390 73.13783 34941 ft 518 kts 48°
2026-04-21 08:04 35.16019 73.20557 34941 ft 518 kts 48°
2026-04-21 08:05 35.20636 73.27322 34942 ft 518 kts 48°
2026-04-21 08:05 35.25261 73.34113 34942 ft 518 kts 48°
2026-04-21 08:06 35.29877 73.40900 34942 ft 518 kts 48°
2026-04-21 08:06 35.34467 73.47664 34942 ft 518 kts 48°
2026-04-21 08:07 35.39084 73.54480 34942 ft 518 kts 48°
2026-04-21 08:07 35.43683 73.61282 34942 ft 518 kts 48°
2026-04-21 08:08 35.48267 73.68076 34939 ft 518 kts 49°
2026-04-21 08:08 35.52872 73.74915 34941 ft 518 kts 49°
2026-04-21 08:09 35.57463 73.81747 34941 ft 518 kts 49°
2026-04-21 08:09 35.62044 73.88577 34941 ft 518 kts 49°
2026-04-21 08:10 35.66622 73.95415 34941 ft 518 kts 49°
2026-04-21 08:10 35.71211 74.02280 34941 ft 518 kts 49°
2026-04-21 08:11 35.75798 74.09159 34941 ft 518 kts 49°
2026-04-21 08:11 35.80373 74.16030 34941 ft 518 kts 49°
2026-04-21 08:12 35.84950 74.22916 34941 ft 518 kts 49°
2026-04-21 08:12 35.89525 74.29758 34941 ft 517 kts 46°
2026-04-21 08:13 35.94530 74.36142 34941 ft 515 kts 39°
2026-04-21 08:13 35.99927 74.41861 34941 ft 514 kts 37°
2026-04-21 08:14 36.05448 74.47537 34941 ft 514 kts 37°
2026-04-21 08:14 36.10941 74.53213 34940 ft 514 kts 37°
2026-04-21 08:15 36.16430 74.58912 34941 ft 514 kts 37°
2026-04-21 08:15 36.21899 74.64607 34942 ft 514 kts 37°
2026-04-21 08:16 36.27393 74.70342 34940 ft 514 kts 37°
2026-04-21 08:16 36.32847 74.76046 34941 ft 514 kts 37°
2026-04-21 08:17 36.38314 74.81775 34941 ft 514 kts 37°
2026-04-21 08:17 36.43780 74.87513 34941 ft 514 kts 37°
2026-04-21 08:18 36.49270 74.93288 34941 ft 514 kts 37°
2026-04-21 08:18 36.54718 74.99028 34941 ft 514 kts 37°
2026-04-21 08:19 36.60185 75.04800 34941 ft 514 kts 37°
2026-04-21 08:19 36.65631 75.10561 34941 ft 514 kts 37°
2026-04-21 08:20 36.71083 75.16338 34941 ft 514 kts 37°
2026-04-21 08:20 36.76563 75.22155 34941 ft 514 kts 37°
2026-04-21 08:21 36.81990 75.27926 34941 ft 514 kts 37°
2026-04-21 08:21 36.87426 75.33715 34941 ft 514 kts 37°
2026-04-21 08:22 36.92885 75.39559 34941 ft 515 kts 38°
2026-04-21 08:22 36.98036 75.45781 34941 ft 516 kts 43°
2026-04-21 08:23 37.03081 75.52215 34941 ft 516 kts 43°
2026-04-21 08:23 37.08112 75.58643 34941 ft 516 kts 43°
2026-04-21 08:24 37.13157 75.65081 34941 ft 516 kts 43°
2026-04-21 08:24 37.18169 75.71483 34940 ft 516 kts 43°
2026-04-21 08:25 37.23209 75.77930 34941 ft 516 kts 43°
2026-04-21 08:25 37.28252 75.84393 34941 ft 516 kts 43°
2026-04-21 08:26 37.33275 75.90840 34941 ft 516 kts 43°
2026-04-21 08:26 37.38307 75.97314 34941 ft 516 kts 43°
2026-04-21 08:27 37.43321 76.03780 34941 ft 516 kts 43°
2026-04-21 08:27 37.48325 76.10246 34941 ft 516 kts 43°
2026-04-21 08:28 37.53362 76.16770 34941 ft 516 kts 43°
2026-04-21 08:28 37.58331 76.23219 34941 ft 516 kts 43°
2026-04-21 08:29 37.63347 76.29742 34941 ft 516 kts 43°
2026-04-21 08:29 37.68349 76.36260 34941 ft 516 kts 43°
2026-04-21 08:30 37.73331 76.42767 34941 ft 516 kts 43°
2026-04-21 08:30 37.78315 76.49289 34941 ft 516 kts 43°
2026-04-21 08:31 37.83306 76.55833 34941 ft 516 kts 43°
2026-04-21 08:31 37.88315 76.62414 34941 ft 516 kts 43°
2026-04-21 08:32 37.93309 76.68989 34940 ft 516 kts 44°
2026-04-21 08:32 37.98265 76.75526 34941 ft 517 kts 44°
2026-04-21 08:33 38.03252 76.82119 34942 ft 517 kts 44°
2026-04-21 08:33 38.08215 76.88693 34942 ft 517 kts 44°
2026-04-21 08:34 38.13211 76.95322 34941 ft 517 kts 44°
2026-04-21 08:34 38.18179 77.01926 34941 ft 517 kts 44°
2026-04-21 08:35 38.23157 77.08428 34941 ft 516 kts 41°
2026-04-21 08:35 38.28382 77.14709 34942 ft 515 kts 40°
2026-04-21 08:36 38.33616 77.20933 34941 ft 515 kts 40°
2026-04-21 08:36 38.38825 77.27151 34941 ft 515 kts 40°
2026-04-21 08:37 38.44058 77.33421 34941 ft 515 kts 40°
2026-04-21 08:37 38.49283 77.39693 34941 ft 515 kts 40°
2026-04-21 08:38 38.54496 77.45971 34941 ft 516 kts 41°
2026-04-21 08:38 38.59389 77.52657 34941 ft 518 kts 48°
2026-04-21 08:39 38.63838 77.59937 34942 ft 518 kts 50°
2026-04-21 08:39 38.68211 77.67295 34939 ft 518 kts 51°
2026-04-21 08:40 38.72574 77.74628 34941 ft 519 kts 51°
2026-04-21 08:40 38.76948 77.81973 34941 ft 519 kts 51°
2026-04-21 08:41 38.81343 77.89362 34942 ft 519 kts 51°
2026-04-21 08:41 38.85692 77.96689 34941 ft 519 kts 51°
2026-04-21 08:42 38.90059 78.04063 34941 ft 519 kts 51°
2026-04-21 08:42 38.94432 78.11463 34941 ft 519 kts 51°
2026-04-21 08:43 38.98770 78.18823 34941 ft 519 kts 51°
2026-04-21 08:43 39.03122 78.26221 34941 ft 519 kts 51°
2026-04-21 08:44 39.07481 78.33649 34941 ft 519 kts 51°
2026-04-21 08:44 39.11817 78.41054 34941 ft 519 kts 51°
2026-04-21 08:45 39.16166 78.48499 34942 ft 519 kts 51°
2026-04-21 08:45 39.20487 78.55913 34942 ft 519 kts 51°
2026-04-21 08:46 39.24809 78.63346 34942 ft 519 kts 51°
2026-04-21 08:46 39.29150 78.70827 34940 ft 519 kts 51°
2026-04-21 08:47 39.33461 78.78277 34941 ft 519 kts 51°
2026-04-21 08:47 39.37778 78.85752 34941 ft 519 kts 51°
2026-04-21 08:48 39.42080 78.93220 34941 ft 519 kts 51°
2026-04-21 08:48 39.46410 79.00751 34941 ft 519 kts 51°
2026-04-21 08:49 39.50704 79.08237 34941 ft 519 kts 51°
2026-04-21 08:49 39.54994 79.15729 34941 ft 519 kts 51°
2026-04-21 08:50 39.59309 79.23289 34941 ft 519 kts 52°
2026-04-21 08:50 39.63586 79.30818 34941 ft 519 kts 52°
2026-04-21 08:51 39.67851 79.38339 34941 ft 519 kts 52°
2026-04-21 08:51 39.72144 79.45920 34941 ft 519 kts 51°
2026-04-21 08:52 39.76397 79.53445 34941 ft 519 kts 51°
2026-04-21 08:52 39.80678 79.61037 34941 ft 519 kts 51°
2026-04-21 08:53 39.84951 79.68632 34939 ft 519 kts 52°
2026-04-21 08:53 39.89192 79.76188 34941 ft 519 kts 52°
2026-04-21 08:54 39.93457 79.83805 34942 ft 519 kts 52°
2026-04-21 08:54 39.97711 79.91420 34942 ft 519 kts 52°
2026-04-21 08:55 40.01934 79.98997 34941 ft 519 kts 52°
2026-04-21 08:55 40.06198 80.06661 34941 ft 519 kts 52°
2026-04-21 08:56 40.10426 80.14282 34941 ft 519 kts 52°
2026-04-21 08:56 40.14702 80.21878 34941 ft 519 kts 51°
2026-04-21 08:57 40.19087 80.29427 34942 ft 519 kts 51°
2026-04-21 08:57 40.23450 80.36949 34942 ft 519 kts 51°
2026-04-21 08:58 40.27776 80.44443 34942 ft 519 kts 51°
2026-04-21 08:58 40.32122 80.51998 34942 ft 519 kts 51°
2026-04-21 08:59 40.36460 80.59560 34942 ft 519 kts 51°
2026-04-21 08:59 40.40797 80.67136 34939 ft 519 kts 51°
2026-04-21 09:00 40.45121 80.74710 34941 ft 519 kts 51°
2026-04-21 09:00 40.49435 80.82288 34941 ft 519 kts 51°
2026-04-21 09:01 40.53778 80.89932 34941 ft 519 kts 51°
2026-04-21 09:01 40.58095 80.97549 34941 ft 519 kts 51°
2026-04-21 09:02 40.62383 81.05133 34941 ft 519 kts 51°
2026-04-21 09:02 40.66698 81.12783 34941 ft 519 kts 51°
2026-04-21 09:03 40.73149 81.24255 34941 ft 519 kts 51°
2026-04-21 09:03 40.77413 81.31860 34941 ft 519 kts 51°
2026-04-21 09:04 40.81697 81.39520 34941 ft 519 kts 51°
2026-04-21 09:04 40.85973 81.47182 34941 ft 519 kts 51°
2026-04-21 09:05 40.90272 81.54900 34941 ft 519 kts 51°
2026-04-21 09:05 40.94544 81.62592 34941 ft 519 kts 51°
2026-04-21 09:06 40.98914 81.70155 34940 ft 518 kts 50°
2026-04-21 09:06 41.03461 81.77599 34941 ft 518 kts 49°
2026-04-21 09:07 41.07976 81.84972 34942 ft 518 kts 49°
2026-04-21 09:07 41.12507 81.92403 34941 ft 518 kts 49°
2026-04-21 09:08 41.17035 81.99851 34941 ft 518 kts 49°
2026-04-21 09:08 41.21584 82.07357 34941 ft 518 kts 49°
2026-04-21 09:09 41.26100 82.14826 34941 ft 518 kts 49°
2026-04-21 09:09 41.30589 82.22268 34942 ft 518 kts 49°
2026-04-21 09:10 41.35120 82.29797 34942 ft 518 kts 49°
2026-04-21 09:10 41.39637 82.37324 34942 ft 518 kts 49°
2026-04-21 09:11 41.44102 82.44780 34941 ft 518 kts 49°
2026-04-21 09:11 41.48623 82.52348 34941 ft 518 kts 49°
2026-04-21 09:12 41.53118 82.59888 34941 ft 518 kts 49°
2026-04-21 09:12 41.57579 82.67386 34939 ft 518 kts 50°
2026-04-21 09:13 41.62093 82.74989 34941 ft 518 kts 50°
2026-04-21 09:13 41.66529 82.82539 34941 ft 519 kts 51°
2026-04-21 09:14 41.70584 82.90573 34942 ft 520 kts 56°
2026-04-21 09:14 41.74400 82.98759 34942 ft 520 kts 57°
2026-04-21 09:15 41.78227 83.07000 34941 ft 520 kts 57°
2026-04-21 09:15 41.82060 83.15245 34941 ft 520 kts 57°
2026-04-21 09:16 41.85881 83.23473 34941 ft 520 kts 56°
2026-04-21 09:16 41.89683 83.31677 34941 ft 520 kts 56°
2026-04-21 09:17 41.93516 83.39974 34941 ft 520 kts 56°
2026-04-21 09:17 41.97325 83.48239 34941 ft 520 kts 56°
2026-04-21 09:18 42.01112 83.56480 34941 ft 520 kts 56°
2026-04-21 09:18 42.04900 83.64741 34940 ft 520 kts 56°
2026-04-21 09:19 42.08709 83.73071 34941 ft 520 kts 57°
2026-04-21 09:19 42.12497 83.81376 34941 ft 520 kts 57°
2026-04-21 09:20 42.16292 83.89719 34941 ft 520 kts 57°
2026-04-21 09:20 42.20074 83.98061 34941 ft 520 kts 57°
2026-04-21 09:21 42.24038 84.06177 34942 ft 519 kts 54°
2026-04-21 09:21 42.28140 84.14251 34942 ft 519 kts 54°
2026-04-21 09:22 42.32208 84.22260 34941 ft 519 kts 54°
2026-04-21 09:22 42.36298 84.30344 34942 ft 519 kts 54°
2026-04-21 09:23 42.40389 84.38460 34942 ft 519 kts 54°
2026-04-21 09:23 42.44458 84.46558 34941 ft 519 kts 54°
2026-04-21 09:24 42.48498 84.54617 34941 ft 519 kts 54°
2026-04-21 09:24 42.52568 84.62761 34941 ft 519 kts 54°
2026-04-21 09:25 42.56640 84.70927 34940 ft 520 kts 54°
2026-04-21 09:25 42.60671 84.79035 34941 ft 520 kts 54°
2026-04-21 09:26 42.64722 84.87206 34941 ft 520 kts 54°
2026-04-21 09:26 42.68746 84.95345 34941 ft 520 kts 54°
2026-04-21 09:27 42.72776 85.03517 34941 ft 520 kts 54°
2026-04-21 09:27 42.76781 85.11661 34941 ft 520 kts 54°
2026-04-21 09:28 42.80137 85.18502 34941 ft 520 kts 54°
2026-04-21 09:28 42.84829 85.28094 34941 ft 520 kts 54°
2026-04-21 09:29 42.88821 85.36276 34941 ft 520 kts 54°
2026-04-21 09:29 42.92833 85.44524 34941 ft 520 kts 54°
2026-04-21 09:30 42.96811 85.52725 34942 ft 520 kts 54°
2026-04-21 09:30 43.00803 85.60974 34941 ft 520 kts 54°
2026-04-21 09:31 43.04796 85.69247 34939 ft 520 kts 55°
2026-04-21 09:31 43.08792 85.77548 34941 ft 520 kts 55°
2026-04-21 09:32 43.12777 85.85845 34941 ft 520 kts 55°
2026-04-21 09:32 43.16747 85.94136 34941 ft 520 kts 55°
2026-04-21 09:33 43.20725 86.02433 34941 ft 520 kts 55°
2026-04-21 09:33 43.24736 86.10716 34941 ft 520 kts 55°
2026-04-21 09:34 43.28718 86.18969 34942 ft 520 kts 55°
2026-04-21 09:34 43.32733 86.27262 34942 ft 520 kts 54°
2026-04-21 09:35 43.36747 86.35502 34942 ft 520 kts 54°
2026-04-21 09:35 43.40755 86.43758 34942 ft 520 kts 54°
2026-04-21 09:36 43.44761 86.52010 34942 ft 520 kts 54°
2026-04-21 09:36 43.48800 86.60303 34941 ft 520 kts 54°
2026-04-21 09:37 43.52822 86.68585 34939 ft 520 kts 55°
2026-04-21 09:37 43.56821 86.76921 34941 ft 520 kts 56°
2026-04-21 09:38 43.60765 86.85280 34941 ft 520 kts 56°
2026-04-21 09:38 43.64701 86.93622 34941 ft 520 kts 56°
2026-04-21 09:39 43.68650 87.01996 34941 ft 520 kts 56°
2026-04-21 09:39 43.72607 87.10406 34941 ft 520 kts 56°
2026-04-21 09:40 43.76531 87.18801 34941 ft 520 kts 56°
2026-04-21 09:40 43.80462 87.27247 34941 ft 520 kts 56°
2026-04-21 09:41 43.84363 87.35631 34941 ft 520 kts 56°
2026-04-21 09:41 43.88280 87.44068 34941 ft 520 kts 56°
2026-04-21 09:42 43.92314 87.52485 34940 ft 519 kts 52°
2026-04-21 09:42 43.96645 87.60477 34941 ft 519 kts 50°
2026-04-21 09:43 44.01037 87.68452 34939 ft 519 kts 51°
2026-04-21 09:43 44.05409 87.76440 34941 ft 519 kts 51°
2026-04-21 09:44 44.09769 87.84452 34942 ft 519 kts 51°
2026-04-21 09:44 44.13864 87.92767 34941 ft 521 kts 58°
2026-04-21 09:45 44.17061 88.01798 34941 ft 521 kts 68°
2026-04-21 09:45 44.19273 88.11462 34941 ft 521 kts 77°
2026-04-21 09:46 44.20761 88.21313 34942 ft 521 kts 79°
2026-04-21 09:46 44.22187 88.31230 34942 ft 521 kts 79°
2026-04-21 09:47 44.23636 88.41178 34942 ft 521 kts 78°
2026-04-21 09:47 44.25089 88.51089 34942 ft 521 kts 78°
2026-04-21 09:48 44.26539 88.61025 34942 ft 521 kts 78°
2026-04-21 09:48 44.27970 88.70904 34940 ft 521 kts 79°
2026-04-21 09:49 44.29398 88.80843 34941 ft 521 kts 79°
2026-04-21 09:49 44.30822 88.90807 34941 ft 521 kts 79°
2026-04-21 09:50 44.31758 88.97392 34941 ft 521 kts 79°
2026-04-21 09:50 44.33627 89.10621 34941 ft 521 kts 79°
2026-04-21 09:51 44.35020 89.20561 34941 ft 521 kts 79°
2026-04-21 09:51 44.36413 89.30562 34942 ft 521 kts 79°
2026-04-21 09:52 44.37791 89.40517 34942 ft 521 kts 79°
2026-04-21 09:52 44.39154 89.50430 34942 ft 521 kts 79°
2026-04-21 09:53 44.40293 89.60468 34941 ft 520 kts 85°
2026-04-21 09:53 44.40352 89.70591 34939 ft 518 kts 96°
2026-04-21 09:54 44.39252 89.80491 34941 ft 515 kts 106°
2026-04-21 09:54 44.37256 89.90076 34942 ft 513 kts 110°
2026-04-21 09:55 44.35130 89.99616 34941 ft 513 kts 110°
2026-04-21 09:55 44.33023 90.09155 34941 ft 513 kts 110°
2026-04-21 09:56 44.30925 90.18690 34941 ft 513 kts 110°
2026-04-21 09:56 44.28828 90.28202 34941 ft 513 kts 110°
2026-04-21 09:57 44.26720 90.37728 34942 ft 513 kts 110°
2026-04-21 09:57 44.24603 90.47251 34942 ft 513 kts 110°
2026-04-21 09:58 44.22472 90.56799 34942 ft 513 kts 110°
2026-04-21 09:58 44.20347 90.66280 34941 ft 513 kts 110°
2026-04-21 09:59 44.18212 90.75754 34941 ft 513 kts 110°
2026-04-21 09:59 44.16061 90.85259 34941 ft 513 kts 110°
2026-04-21 10:00 44.13917 90.94717 34941 ft 513 kts 110°
2026-04-21 10:00 44.11752 91.04208 34941 ft 513 kts 110°
2026-04-21 10:01 44.09575 91.13661 34941 ft 513 kts 111°
2026-04-21 10:01 44.07400 91.23092 34942 ft 513 kts 110°
2026-04-21 10:02 44.04120 91.37296 34942 ft 513 kts 110°
2026-04-21 10:03 44.01917 91.46736 34942 ft 513 kts 111°
2026-04-21 10:03 43.99683 91.56148 34942 ft 513 kts 111°
2026-04-21 10:04 43.97439 91.65578 34942 ft 513 kts 111°
2026-04-21 10:04 43.95200 91.74965 34940 ft 512 kts 111°
2026-04-21 10:05 43.92954 91.84349 34941 ft 512 kts 111°
2026-04-21 10:05 43.90709 91.93697 34941 ft 512 kts 111°
2026-04-21 10:06 43.88440 92.03103 34942 ft 512 kts 111°
2026-04-21 10:06 43.86172 92.12467 34941 ft 512 kts 111°
2026-04-21 10:07 43.83895 92.21831 34941 ft 512 kts 111°
2026-04-21 10:07 43.81608 92.31201 34941 ft 512 kts 111°
2026-04-21 10:08 43.79322 92.40523 34941 ft 512 kts 111°
2026-04-21 10:08 43.77020 92.49876 34941 ft 512 kts 111°
2026-04-21 10:09 43.74713 92.59208 34941 ft 512 kts 111°
2026-04-21 10:09 43.72406 92.68510 34939 ft 512 kts 112°
2026-04-21 10:10 43.70087 92.77827 34941 ft 512 kts 112°
2026-04-21 10:10 43.67762 92.87139 34941 ft 512 kts 112°
2026-04-21 10:11 43.65434 92.96416 34941 ft 512 kts 112°
2026-04-21 10:11 43.63134 93.05780 34941 ft 512 kts 111°
2026-04-21 10:12 43.60914 93.15083 34941 ft 512 kts 111°
2026-04-21 10:12 43.58665 93.24480 34941 ft 512 kts 111°
2026-04-21 10:13 43.56415 93.33821 34941 ft 512 kts 111°
2026-04-21 10:13 43.54166 93.43112 34941 ft 512 kts 111°
2026-04-21 10:14 43.51904 93.52417 34941 ft 512 kts 111°
2026-04-21 10:14 43.49627 93.61745 34941 ft 512 kts 111°
2026-04-21 10:15 43.47340 93.71073 34940 ft 512 kts 112°
2026-04-21 10:15 43.45055 93.80367 34941 ft 512 kts 112°
2026-04-21 10:16 43.42759 93.89664 34941 ft 512 kts 112°
2026-04-21 10:16 43.40462 93.98914 34941 ft 512 kts 112°
2026-04-21 10:17 43.38144 94.08221 34941 ft 512 kts 112°
2026-04-21 10:17 43.35835 94.17463 34941 ft 512 kts 112°
2026-04-21 10:18 43.33511 94.26728 34941 ft 512 kts 112°
2026-04-21 10:18 43.31179 94.35978 34941 ft 512 kts 112°
2026-04-21 10:19 43.28845 94.45201 34942 ft 512 kts 112°
2026-04-21 10:19 43.26505 94.54414 34942 ft 512 kts 112°
2026-04-21 10:20 43.24160 94.63615 34942 ft 512 kts 112°
2026-04-21 10:20 43.21800 94.72831 34940 ft 512 kts 112°
2026-04-21 10:21 43.19429 94.82068 34941 ft 512 kts 112°
2026-04-21 10:21 43.17064 94.91249 34941 ft 511 kts 112°
2026-04-21 10:22 43.14396 95.00224 34941 ft 507 kts 121°
2026-04-21 10:22 43.10537 95.08247 34941 ft 500 kts 134°
2026-04-21 10:23 43.05677 95.14867 34941 ft 492 kts 146°
2026-04-21 10:23 43.00111 95.20264 34942 ft 489 kts 150°
2026-04-21 10:24 42.94483 95.25436 34941 ft 489 kts 150°
2026-04-21 10:24 42.88826 95.30659 34942 ft 489 kts 150°
2026-04-21 10:25 42.83224 95.35843 34941 ft 489 kts 150°
2026-04-21 10:25 42.77607 95.41037 34941 ft 489 kts 150°
2026-04-21 10:26 42.71973 95.46238 34941 ft 489 kts 150°
2026-04-21 10:26 42.66365 95.51405 34941 ft 489 kts 150°
2026-04-21 10:27 42.60711 95.56605 34941 ft 489 kts 150°
2026-04-21 10:27 42.55070 95.61785 34941 ft 489 kts 150°
2026-04-21 10:28 42.49451 95.66929 34939 ft 489 kts 151°
2026-04-21 10:28 42.44252 95.72939 34940 ft 499 kts 136°
2026-04-21 10:29 42.40432 95.80841 34941 ft 509 kts 118°
2026-04-21 10:29 42.38418 95.90075 34941 ft 517 kts 100°
2026-04-21 10:30 42.38015 95.99837 34943 ft 519 kts 93°
2026-04-21 10:30 42.37825 96.09555 34942 ft 518 kts 93°
2026-04-21 10:31 42.37587 96.19303 34941 ft 518 kts 94°
2026-04-21 10:31 42.37311 96.29060 34941 ft 518 kts 94°
2026-04-21 10:32 42.37016 96.38826 34942 ft 518 kts 94°
2026-04-21 10:32 42.36714 96.48526 34942 ft 518 kts 94°
2026-04-21 10:33 42.36401 96.58244 34942 ft 518 kts 94°
2026-04-21 10:33 42.36080 96.67981 34940 ft 518 kts 95°
2026-04-21 10:34 42.35750 96.77736 34941 ft 518 kts 95°
2026-04-21 10:34 42.35411 96.87508 34941 ft 518 kts 95°
2026-04-21 10:35 42.35067 96.97184 34941 ft 518 kts 95°
2026-04-21 10:35 42.34711 97.06970 34941 ft 518 kts 95°
2026-04-21 10:36 42.34351 97.16646 34941 ft 518 kts 95°
2026-04-21 10:36 42.33980 97.26402 34941 ft 518 kts 95°
2026-04-21 10:37 42.33603 97.36088 34942 ft 518 kts 95°
2026-04-21 10:37 42.33218 97.45796 34942 ft 518 kts 95°
2026-04-21 10:38 42.32822 97.55536 34942 ft 518 kts 95°
2026-04-21 10:38 42.32418 97.65287 34942 ft 518 kts 95°
2026-04-21 10:39 42.32009 97.75002 34940 ft 518 kts 95°
2026-04-21 10:39 42.31591 97.84699 34941 ft 518 kts 95°
2026-04-21 10:40 42.31165 97.94405 34941 ft 518 kts 95°
2026-04-21 10:40 42.30731 98.04118 34941 ft 518 kts 95°
2026-04-21 10:41 42.30291 98.13816 34941 ft 518 kts 95°
2026-04-21 10:41 42.29846 98.23490 34941 ft 518 kts 95°
2026-04-21 10:42 42.29384 98.33199 34942 ft 518 kts 96°
2026-04-21 10:42 42.28881 98.42909 34942 ft 518 kts 96°
2026-04-21 10:43 42.28369 98.52634 34942 ft 518 kts 96°
2026-04-21 10:43 42.27858 98.62297 34942 ft 518 kts 96°
2026-04-21 10:44 42.27341 98.71971 34940 ft 517 kts 96°
2026-04-21 10:44 42.26813 98.81692 34941 ft 517 kts 96°
2026-04-21 10:45 42.26280 98.91363 34941 ft 517 kts 96°
2026-04-21 10:45 42.25736 99.01094 34941 ft 517 kts 96°
2026-04-21 10:46 42.25188 99.10747 34941 ft 517 kts 96°
2026-04-21 10:46 42.24630 99.20435 34941 ft 517 kts 96°
2026-04-21 10:47 42.24063 99.30119 34942 ft 517 kts 96°
2026-04-21 10:47 42.23491 99.39770 34942 ft 517 kts 96°
2026-04-21 10:48 42.22909 99.49442 34942 ft 517 kts 96°
2026-04-21 10:48 42.22318 99.59158 34942 ft 517 kts 96°
2026-04-21 10:49 42.21721 99.68825 34940 ft 517 kts 97°
2026-04-21 10:49 42.21113 99.78487 34940 ft 517 kts 97°
2026-04-21 10:50 42.20600 99.86541 34940 ft 517 kts 97°
2026-04-21 10:50 42.19873 99.97829 34940 ft 517 kts 97°
2026-04-21 10:51 42.19239 100.07543 34940 ft 517 kts 97°
2026-04-21 10:51 42.18604 100.17149 34940 ft 517 kts 97°
2026-04-21 10:52 42.17957 100.26823 34940 ft 517 kts 97°
2026-04-21 10:52 42.17301 100.36499 34941 ft 517 kts 97°
2026-04-21 10:53 42.16642 100.46104 34942 ft 517 kts 97°
2026-04-21 10:53 42.15976 100.55785 34942 ft 517 kts 97°
2026-04-21 10:54 42.15303 100.65415 34942 ft 517 kts 98°
2026-04-21 10:54 42.14621 100.75024 34940 ft 517 kts 98°
2026-04-21 10:55 42.13929 100.84667 34941 ft 517 kts 98°
2026-04-21 10:55 42.13227 100.94299 34941 ft 517 kts 98°
2026-04-21 10:56 42.12106 101.03890 34941 ft 514 kts 105°
2026-04-21 10:56 42.10201 101.13106 34941 ft 511 kts 112°
2026-04-21 10:57 42.07828 101.22121 34942 ft 510 kts 113°
2026-04-21 10:57 42.05433 101.31129 34942 ft 510 kts 112°
2026-04-21 10:58 42.03061 101.40089 34942 ft 511 kts 112°
2026-04-21 10:58 42.00684 101.49073 34942 ft 511 kts 112°
2026-04-21 10:59 41.98294 101.58077 34942 ft 511 kts 112°
2026-04-21 10:59 41.95903 101.67055 34940 ft 510 kts 113°
2026-04-21 11:00 41.93507 101.76014 34940 ft 510 kts 113°